Abha, Saudi Arabia

7:24 PM +03 on September 17, 2019 (GMT +0300)
Abha

Weather History for OEAB - May, 2019

Change the Weather History Date:

Monday, May 27, 2019

  Actual Average Record
Temperature  
Mean Temperature 66 °F -  
Max Temperature 78 °F 84 °F 89 °F (2017)
Min Temperature 55 °F 61 °F 55 °F (2019)
Cooling Degree Days 2    
Growing Degree Days 16 (Base 50)    
Moisture  
Dew Point 51 °F    
Average Humidity 56    
Maximum Humidity 100    
Minimum Humidity 24    
Precipitation  
Precipitation 0.00 in - - ()
Sea Level Pressure  
Sea Level Pressure 30.23 in    
Wind  
Wind Speed 5 mph ()    
Max Wind Speed 13 mph    
Max Gust Speed -    
Visibility 6.2 miles    
Events      
Averages and records for this station are not official NWS values.
T = Trace of Precipitation, MM = Missing Value Source: Averaged Metar Reports

Daily Weather History Graph

Daily Weather History Graph

Search for Another Location

Airport or City:

Astronomy

May. 27, 2019 Rise Set
Actual Time 5:33 AM +03 6:39 PM +03
Civil Twilight 5:09 AM +03 7:03 PM +03
Nautical Twilight 4:41 AM +03 7:31 PM +03
Astronomical Twilight 4:12 AM +03 8:00 PM +03
Moon 12:52 AM +03 (5/27) 12:42 PM +03 (5/27)
Length of Visible Light 13h 54m
Length of Day
13h 06m
Last Quarter, 43% of the Moon is Illuminated
May 27
Last Quarter
Jun 3
New
Jun 10
First Quarter
Jun 17
Full
Jun 25
Last Quarter

Hourly Weather History & Observations

Time (+03) Temp. Dew Point Humidity Pressure Visibility Wind Dir Wind Speed Gust Speed Precip Events Conditions
12:00 AM 59.0 °F 53.6 °F 82% 30.27 in - SSE 3.5 mph - N/A   Clear
1:00 AM 57.2 °F 53.6 °F 88% 30.24 in - SW 3.5 mph - N/A   Clear
2:00 AM 59.0 °F 53.6 °F 82% 30.24 in - Calm Calm - N/A   Clear
3:00 AM 57 °F 55 °F 92%  in 6 mi Calm Calm - -  
4:00 AM 57.2 °F 55.4 °F 94% 30.21 in - Calm Calm - N/A   Clear
5:00 AM 55.4 °F 55.4 °F 100% 30.21 in - Calm Calm - N/A   Clear
8:00 AM 64.4 °F 51.8 °F 64% 30.24 in - SSW 4.6 mph - N/A   Clear
9:00 AM 71.6 °F 51.8 °F 50% 30.24 in - South 8.1 mph - N/A   Clear
10:00 AM 73.4 °F 48.2 °F 41% 30.24 in - South 11.5 mph - N/A   Clear
11:00 AM 73.4 °F 48.2 °F 41% 30.27 in 6.2 mi South 11.5 mph - N/A   Partly Cloudy
12:00 PM 75.2 °F 48.2 °F 38% 30.24 in 6.2 mi South 9.2 mph - N/A   Scattered Clouds
2:00 PM 77.0 °F 48.2 °F 36% 30.21 in 6.2 mi South 12.7 mph - N/A   Scattered Clouds
3:00 PM 78 °F 48 °F 24%  in 6 mi SSW 11.5 mph - -   Partly Cloudy
3:00 PM 78.8 °F 48.2 °F 34% 30.18 in 6.2 mi SSW 11.5 mph - N/A   Scattered Clouds
4:00 PM 78.8 °F 48.2 °F 34% 30.18 in 6.2 mi SSW 8.1 mph - N/A   Partly Cloudy
5:00 PM 77.0 °F 44.6 °F 32% 30.18 in 6.2 mi WNW 9.2 mph - N/A   Partly Cloudy
6:00 PM 73.4 °F 48.2 °F 41% 30.18 in 6.2 mi West 11.5 mph - N/A   Partly Cloudy
7:00 PM 71.6 °F 50.0 °F 46% 30.24 in 6.2 mi NW 5.8 mph - N/A   Partly Cloudy
8:00 PM 71.6 °F 50.0 °F 46% 30.24 in 6.2 mi NNW 4.6 mph - N/A   Partly Cloudy
9:00 PM 69.8 °F 53.6 °F 56% 30.24 in 6.2 mi Calm Calm - N/A   Partly Cloudy
10:00 PM 68.0 °F 55.4 °F 64% 30.27 in 6.2 mi ENE 5.8 mph - N/A   Scattered Clouds
11:00 PM 66.2 °F 50.0 °F 56% 30.27 in 6.2 mi Calm Calm - N/A   Partly Cloudy